Location: Steznica
(49.3330°N, 22.3330°E)
Time: 12:27:39
(UTC+01:00)

ISS - Visible Passes

Search period start: 21 March 2019 00:00
Search period end: 31 March 2019 00:00
Orbit: 406 x 411 km, 51.6° (Epoch: 21 March)

Date Brightness Start Highest point End Pass type
(mag) Time Alt. Az. Time Alt. Az. Time Alt. Az.
21 Mar -1.7 18:54:51 10° S 18:56:04 13° SSE 18:56:04 13° SSE visible
22 Mar -2.7 19:38:34 10° SW 19:40:42 31° SSW 19:40:42 31° SSW visible
23 Mar -2.7 18:47:53 10° SSW 18:50:44 27° SE 18:52:19 18° E visible
23 Mar -1.6 20:23:46 10° WSW 20:25:05 22° WSW 20:25:05 22° WSW visible
24 Mar -4.0 19:32:41 10° WSW 19:35:59 76° SSE 19:36:30 58° E visible
25 Mar -3.6 18:41:42 10° SW 18:44:54 51° SSE 18:47:46 12° ENE visible
25 Mar -2.5 20:18:12 10° W 20:20:31 39° WNW 20:20:31 39° WNW visible
26 Mar -3.7 19:27:00 10° W 19:30:18 71° NNW 19:31:39 32° ENE visible
26 Mar -0.7 21:03:49 10° WNW 21:04:24 14° WNW 21:04:24 14° WNW visible
27 Mar -3.8 18:35:50 10° WSW 18:39:09 88° SSE 18:42:27 10° ENE visible
27 Mar -3.0 20:12:37 10° W 20:15:26 49° NNW 20:15:26 49° NNW visible
28 Mar -3.3 19:21:23 10° W 19:24:38 57° N 19:26:23 24° ENE visible
28 Mar -1.0 20:58:06 10° WNW 20:59:07 18° WNW 20:59:07 18° WNW visible
29 Mar -3.5 18:30:08 10° W 18:33:25 65° NNW 18:36:43 10° ENE visible
29 Mar -3.4 20:06:55 10° WNW 20:10:01 59° N 20:10:01 59° N visible
30 Mar -3.3 19:15:42 10° WNW 19:18:58 55° N 19:20:53 22° ENE visible
30 Mar -1.4 20:52:20 10° WNW 20:53:37 21° WNW 20:53:37 21° WNW visible
